SV2BZQ-2 Thessalonik GR current weather conditions

sailwx.info

Wind from 192

Air temperature 12.2° C
Dewpoint 5.4° C

Last reported at 2016-Feb-11 20:45 UTC.
Time now 2016-Feb-11 21:15 UTC

Location: N 40°41' E 022°51'.
View on Google Maps.

See reports from other nearby stations

  
Tides and Currents Weather Stations Pressure Air Temp Water Temp Dewpoint Dewpoint Depression Visibility Wind Speed Wind Dir Waves Ship Positions
date/time (UTC)wind fromknots sea level pressurealtimeterstation pressurevisibilityair tempwater tempwave heightnotes
2016-Feb-11 20:45 192 12.2
2016-Feb-11 20:39 192 12.2
2016-Feb-11 20:35 193 12.2
2016-Feb-11 20:30 192 12.2
2016-Feb-11 20:25 193 12.2
2016-Feb-11 20:19 192 12.8
2016-Feb-11 20:15 192 12.2
2016-Feb-11 20:09 192 12.8
2016-Feb-11 20:05 192 12.8
2016-Feb-11 20:01 192 12.8
2016-Feb-11 19:55 191 12.8
2016-Feb-11 19:51 192 12.8
2016-Feb-11 19:45 191 12.8
2016-Feb-11 19:40 192 12.8
2016-Feb-11 19:34 192 12.8
2016-Feb-11 19:30 192 12.8
2016-Feb-11 19:24 191 13.3
2016-Feb-11 19:21 192 13.3
2016-Feb-11 19:14 192 13.3
2016-Feb-11 19:10 192 13.3
2016-Feb-11 19:04 192 13.3
2016-Feb-11 19:00 192 13.3
2016-Feb-11 18:54 192 13.3
2016-Feb-11 18:50 192 13.3
2016-Feb-11 18:44 192 13.3
2016-Feb-11 18:40 191 13.3
2016-Feb-11 18:34 192 13.3
2016-Feb-11 18:30 191 13.3
2016-Feb-11 18:24 192 13.3
2016-Feb-11 18:20 192 13.3
2016-Feb-11 18:14 192 13.3
2016-Feb-11 18:10 192 13.3
2016-Feb-11 18:06 191 13.3
2016-Feb-11 18:00 192 13.9
2016-Feb-11 17:55 192 13.9
2016-Feb-11 17:49 192 13.9
2016-Feb-11 17:45 192 13.9
2016-Feb-11 17:39 192 13.9
2016-Feb-11 17:35 191 13.9
2016-Feb-11 17:29 192 13.9
2016-Feb-11 17:25 192 13.9
2016-Feb-11 17:20 192 13.9
2016-Feb-11 17:16 192 13.9
2016-Feb-11 17:10 192 13.9
2016-Feb-11 17:06 192 13.9
2016-Feb-11 17:01 192 13.9
2016-Feb-11 16:56 192 14.4
2016-Feb-11 16:49 192 14.4
2016-Feb-11 16:45 192 14.4
2016-Feb-11 16:39 196 15.0
2016-Feb-11 16:35 196 15.0
2016-Feb-11 16:29 197 15.0
2016-Feb-11 16:25 196 15.0
2016-Feb-11 16:19 198 15.0
2016-Feb-11 16:15 198 14.4
2016-Feb-11 16:09 273 15.0
2016-Feb-11 16:05 275 15.0
2016-Feb-11 16:00 277 15.0
2016-Feb-11 15:55 121 15.0
2016-Feb-11 15:51 067 15.6
2016-Feb-11 15:45 067 15.6
2016-Feb-11 15:41 067 15.6
2016-Feb-11 15:34 067 15.6
2016-Feb-11 15:30 067 15.6
2016-Feb-11 15:24 067 15.6
2016-Feb-11 15:20 067 15.6
2016-Feb-11 15:14 068 0 gusting 2 15.6
2016-Feb-11 15:10 071 0 gusting 3 15.6
2016-Feb-11 15:04 062 15.6
2016-Feb-11 15:00 061 0 gusting 5 15.6
2016-Feb-11 14:54 054 0 gusting 5 15.6
2016-Feb-11 14:50 088 0 gusting 4 15.6
2016-Feb-11 14:44 062 0 gusting 4 15.6
2016-Feb-11 14:40 057 0 gusting 4 15.6
2016-Feb-11 14:36 013 15.6
2016-Feb-11 14:30 060 0 gusting 5 15.6
2016-Feb-11 14:26 061 0 gusting 6 15.6
2016-Feb-11 14:20 064 1 gusting 6 15.6
2016-Feb-11 14:16 056 0 gusting 4 15.6
2016-Feb-11 14:10 062 0 gusting 2 15.6
2016-Feb-11 14:06 086 0 gusting 2 15.6
2016-Feb-11 14:00 050 0 gusting 4 15.6
2016-Feb-11 13:56 036 0 gusting 4 15.6
2016-Feb-11 13:49 054 1 gusting 7 15.6
2016-Feb-11 13:45 019 2 gusting 9 15.6
2016-Feb-11 13:39 030 2 gusting 9 15.6
2016-Feb-11 13:35 053 2 gusting 7 15.6
2016-Feb-11 13:29 017 3 gusting 6 15.6
2016-Feb-11 13:25 072 0 gusting 5 15.6
2016-Feb-11 13:19 055 0 gusting 4 15.6
2016-Feb-11 13:15 087 0 gusting 4 15.6
2016-Feb-11 13:09 073 1 gusting 8 15.6
2016-Feb-11 13:05 047 2 gusting 8 15.6
2016-Feb-11 13:01 034 3 gusting 7 15.6
2016-Feb-11 12:55 028 4 gusting 7 15.6
2016-Feb-11 12:51 022 2 gusting 7 16.1
2016-Feb-11 12:45 063 1 gusting 8 16.1
2016-Feb-11 12:40 069 0 gusting 8 16.1
2016-Feb-11 12:34 074 0 gusting 6 16.1
2016-Feb-11 12:30 066 1 gusting 6 16.7
2016-Feb-11 12:25 091 0 gusting 5 16.7
2016-Feb-11 12:20 078 0 gusting 5 17.2
2016-Feb-11 12:14 064 17.2
2016-Feb-11 12:10 093 17.8
2016-Feb-11 12:04 090 17.8
2016-Feb-11 12:00 092 17.8
2016-Feb-11 11:54 336 17.8
2016-Feb-11 11:50 123 17.8
2016-Feb-11 11:44 114 17.8
2016-Feb-11 11:40 114 0 gusting 4 17.8
2016-Feb-11 11:36 184 0 gusting 4 18.3
2016-Feb-11 11:30 213 0 gusting 2 18.3
2016-Feb-11 11:25 191 18.3
2016-Feb-11 11:19 187 18.3
2016-Feb-11 11:15 187 18.3
2016-Feb-11 11:09 191 0 gusting 3 18.3
2016-Feb-11 11:05 188 0 gusting 4 17.8
2016-Feb-11 11:00 178 0 gusting 5 17.2
2016-Feb-11 10:55 165 0 gusting 5 17.8
2016-Feb-11 10:49 298 0 gusting 2 17.8
2016-Feb-11 10:46 302 17.2
2016-Feb-11 10:39 284 0 gusting 2 17.8
2016-Feb-11 10:35 355 0 gusting 2 17.8
2016-Feb-11 10:30 052 17.2
2016-Feb-11 10:25 312 17.8
2016-Feb-11 10:19 194 17.8
2016-Feb-11 10:15 195 17.8
2016-Feb-11 10:09 191 17.2
2016-Feb-11 10:05 190 0 gusting 3 17.2
2016-Feb-11 10:00 191 0 gusting 5 17.2
2016-Feb-11 09:55 204 0 gusting 5 17.2
2016-Feb-11 09:49 210 0 gusting 5 17.2
2016-Feb-11 09:46 207 16.7
2016-Feb-11 09:41 203 16.7
2016-Feb-11 09:35 204 16.7
2016-Feb-11 09:31 213 16.1
2016-Feb-11 09:23 058 16.1
2016-Feb-11 09:19 011 15.6
2016-Feb-11 09:15 011 15.6
2016-Feb-11 09:09 011 0 gusting 2 15.6
2016-Feb-11 09:05 206 0 gusting 3 15.6
2016-Feb-11 08:59 196 0 gusting 3 15.6
2016-Feb-11 08:55 267 0 gusting 2 15.6
2016-Feb-11 08:49 272 0 gusting 3 15.6
2016-Feb-11 08:45 273 0 gusting 3 15.6
2016-Feb-11 08:41 273 0 gusting 3 15.0
2016-Feb-11 08:35 272 0 gusting 5 15.0
2016-Feb-11 08:31 272 0 gusting 5 15.0
2016-Feb-11 08:25 275 0 gusting 2 15.0
2016-Feb-11 08:21 288 14.4
2016-Feb-11 08:15 314 14.4
2016-Feb-11 08:11 319 13.9
2016-Feb-11 08:05 319 0 gusting 3 13.9
2016-Feb-11 08:00 319 0 gusting 3 13.9
2016-Feb-11 07:54 264 13.3
2016-Feb-11 07:50 265 13.3
2016-Feb-11 07:44 263 13.3
2016-Feb-11 07:40 263 12.8
2016-Feb-11 07:34 263 12.2
2016-Feb-11 07:30 263 11.7
2016-Feb-11 07:24 263 11.7
2016-Feb-11 07:20 263 11.1
2016-Feb-11 07:14 263 10.6
2016-Feb-11 07:10 263 10.6
2016-Feb-11 07:04 263 10.6
2016-Feb-11 07:00 263 10.0
2016-Feb-11 06:54 263 10.0
2016-Feb-11 06:50 263 10.0
2016-Feb-11 06:44 263 10.0
2016-Feb-11 06:40 263 9.4
2016-Feb-11 06:34 263 9.4
2016-Feb-11 06:30 263 9.4
2016-Feb-11 06:24 263 9.4
2016-Feb-11 06:20 263 8.9
2016-Feb-11 06:14 263 8.9
2016-Feb-11 06:10 263 8.9
2016-Feb-11 06:04 263 8.9
2016-Feb-11 06:00 263 8.9
2016-Feb-11 05:54 263 8.9
2016-Feb-11 05:50 263 8.9
2016-Feb-11 05:44 263 9.4
2016-Feb-11 05:40 263 9.4
2016-Feb-11 05:34 263 9.4
2016-Feb-11 05:30 263 9.4
2016-Feb-11 05:26 263 9.4
2016-Feb-11 05:20 263 9.4
2016-Feb-11 05:16 263 9.4
2016-Feb-11 05:10 263 9.4
2016-Feb-11 05:06 263 9.4
2016-Feb-11 05:00 263 10.0
2016-Feb-11 04:56 264 10.0
2016-Feb-11 04:50 264 10.0
2016-Feb-11 04:46 265 10.0
2016-Feb-11 04:40 266 10.0
2016-Feb-11 04:35 265 10.0
2016-Feb-11 04:29 265 10.0
2016-Feb-11 04:25 266 10.0
2016-Feb-11 04:19 266 10.0
2016-Feb-11 04:15 266 10.0
2016-Feb-11 04:09 266 10.6
2016-Feb-11 04:05 266 10.6
2016-Feb-11 03:59 267 10.0
2016-Feb-11 03:55 267 10.6
2016-Feb-11 03:51 267 10.6
2016-Feb-11 03:45 267 10.6
2016-Feb-11 03:41 267 10.6
2016-Feb-11 03:35 267 10.6
2016-Feb-11 03:29 266 10.6
2016-Feb-11 03:25 265 10.6
2016-Feb-11 03:21 265 0 gusting 6 10.6
2016-Feb-11 03:15 265 1 gusting 6 10.6
2016-Feb-11 03:11 301 1 gusting 6 10.6
2016-Feb-11 03:05 273 2 gusting 7 10.6
2016-Feb-11 03:01 299 1 gusting 7 10.6
2016-Feb-11 02:55 280 10.0
2016-Feb-11 02:51 237 10.0
2016-Feb-11 02:45 244 10.6
2016-Feb-11 02:41 223 10.6
2016-Feb-11 02:35 222 10.6
2016-Feb-11 02:30 222 10.6
2016-Feb-11 02:25 222 10.6
2016-Feb-11 02:21 223 10.6
2016-Feb-11 02:15 223 10.6
2016-Feb-11 02:11 211 1 gusting 5 10.6
2016-Feb-11 02:04 261 1 gusting 6 10.6
2016-Feb-11 02:00 260 2 gusting 6 10.6
2016-Feb-11 01:55 264 2 gusting 5 10.0
2016-Feb-11 01:50 286 2 gusting 6 10.6
2016-Feb-11 01:44 280 2 gusting 6 10.0
2016-Feb-11 01:40 292 2 gusting 5 10.0
2016-Feb-11 01:34 309 1 gusting 6 10.6
2016-Feb-11 01:30 279 1 gusting 6 10.6
2016-Feb-11 01:25 299 1 gusting 3 10.6
2016-Feb-11 01:20 298 0 gusting 3 10.6
2016-Feb-11 01:14 296 11.1
2016-Feb-11 01:10 296 10.6
2016-Feb-11 01:04 296 0 gusting 4 11.1
2016-Feb-11 01:00 296 1 gusting 6 11.1
2016-Feb-11 00:56 294 1 gusting 6 11.7
2016-Feb-11 00:50 288 1 gusting 4 11.7
2016-Feb-11 00:44 280 1 gusting 4 11.7
2016-Feb-11 00:41 298 0 gusting 3 11.7
2016-Feb-11 00:34 305 2 gusting 6 11.7
2016-Feb-11 00:30 284 3 gusting 6 11.7
2016-Feb-11 00:26 312 3 gusting 6 11.7
2016-Feb-11 00:20 342 2 gusting 6 12.2
2016-Feb-11 00:16 341 2 gusting 6 12.2
2016-Feb-11 00:11 293 2 gusting 6 12.2
2016-Feb-11 00:06 307 2 gusting 6 12.8
2016-Feb-11 00:00 317 1 gusting 7 12.8
2016-Feb-10 23:56 317 0 gusting 7 13.3
2016-Feb-10 23:50 154 13.3
2016-Feb-10 23:46 153 13.3
2016-Feb-10 23:40 153 13.3
2016-Feb-10 23:36 153 13.3
2016-Feb-10 23:30 153 13.3
2016-Feb-10 23:26 153 13.9
2016-Feb-10 23:19 153 13.9
2016-Feb-10 23:15 153 13.9
2016-Feb-10 23:10 157 13.9
2016-Feb-10 23:05 156 13.9
2016-Feb-10 22:59 157 13.9
2016-Feb-10 22:55 157 13.9
2016-Feb-10 22:49 156 14.4
2016-Feb-10 22:45 157 14.4
2016-Feb-10 22:39 157 14.4
2016-Feb-10 22:35 200 14.4
2016-Feb-10 22:29 217 14.4
2016-Feb-10 22:25 217 14.4
2016-Feb-10 22:19 217 14.4
2016-Feb-10 22:15 217 14.4
2016-Feb-10 22:09 217 0 gusting 5 14.4
2016-Feb-10 22:03 215 1 gusting 6 14.4
2016-Feb-10 21:59 206 1 gusting 6 14.4
2016-Feb-10 21:55 200 0 gusting 5 15.0
2016-Feb-10 21:49 275 0 gusting 3 15.0
2016-Feb-10 21:43 200 1 gusting 9 15.0
2016-Feb-10 21:41 134 1 gusting 9 15.0
2016-Feb-10 21:35 117 2 gusting 9 15.0
2016-Feb-10 21:31 126 2 gusting 9 15.0
2016-Feb-10 21:25 119 3 gusting 8 15.0
2016-Feb-10 21:21 130 4 gusting 10 15.0
2016-Feb-10 21:15 111 3 gusting 10 15.0
2016-Feb-10 21:11 132 3 gusting 10 15.0
2016-Feb-10 21:05 146 4 gusting 10 15.0
2016-Feb-10 21:00 121 5 gusting 12 15.0
2016-Feb-10 20:54 106 6 gusting 13 15.0
2016-Feb-10 20:50 122 6 gusting 13 15.0
2016-Feb-10 20:44 107 7 gusting 13 15.0
2016-Feb-10 20:40 129 7 gusting 15 15.0
2016-Feb-10 20:34 113 6 gusting 15 15.0
2016-Feb-10 20:30 126 7 gusting 13 15.0
2016-Feb-10 20:24 157 8 gusting 17 15.0
2016-Feb-10 20:20 126 7 gusting 17 15.0
2016-Feb-10 20:14 103 6 gusting 16 15.0
2016-Feb-10 20:10 121 6 gusting 13 15.0
2016-Feb-10 20:04 121 6 gusting 14 15.0
2016-Feb-10 20:00 127 6 gusting 14 15.0
2016-Feb-10 19:54 145 6 gusting 15 15.0
2016-Feb-10 19:50 144 5 gusting 15 15.0
2016-Feb-10 19:44 113 5 gusting 12 15.0
2016-Feb-10 19:40 107 6 gusting 13 15.0
2016-Feb-10 19:34 115 5 gusting 13 15.0
2016-Feb-10 19:30 110 4 gusting 9 15.0
2016-Feb-10 19:26 110 4 gusting 12 15.0
2016-Feb-10 19:20 123 4 gusting 12 15.0
2016-Feb-10 19:16 110 3 gusting 9 15.0
2016-Feb-10 19:10 101 4 gusting 10 15.0
2016-Feb-10 19:06 122 4 gusting 10 15.0
2016-Feb-10 19:00 118 4 gusting 12 15.0
2016-Feb-10 18:55 102 5 gusting 12 15.0
2016-Feb-10 18:49 113 4 gusting 13 15.0
2016-Feb-10 18:45 126 4 gusting 13 15.0
2016-Feb-10 18:39 119 3 gusting 11 15.0
2016-Feb-10 18:35 126 3 gusting 9 15.0
2016-Feb-10 18:29 102 3 gusting 9 15.0
2016-Feb-10 18:25 129 3 gusting 9 15.0
2016-Feb-10 18:19 128 2 gusting 12 15.0
2016-Feb-10 18:15 125 2 gusting 12 15.0
2016-Feb-10 18:09 123 3 gusting 13 15.0
2016-Feb-10 18:05 117 3 gusting 12 15.0
2016-Feb-10 17:59 125 4 gusting 10 15.0
2016-Feb-10 17:55 130 4 gusting 10 15.0
2016-Feb-10 17:49 135 6 gusting 13 15.0
2016-Feb-10 17:45 125 6 gusting 13 15.0
2016-Feb-10 17:39 119 5 gusting 14 15.0
2016-Feb-10 17:35 132 5 gusting 14 15.0
2016-Feb-10 17:29 118 5 gusting 14 15.0
2016-Feb-10 17:25 130 5 gusting 13 15.0
2016-Feb-10 17:21 121 5 gusting 13 15.0
2016-Feb-10 17:15 156 4 gusting 12 15.0
2016-Feb-10 17:11 120 4 gusting 10 15.0
2016-Feb-10 17:05 109 4 gusting 13 15.0
2016-Feb-10 17:01 128 5 gusting 13 15.0
2016-Feb-10 16:55 133 6 gusting 13 15.6
2016-Feb-10 16:51 105 6 gusting 13 15.6
2016-Feb-10 16:45 140 6 gusting 18 15.6
2016-Feb-10 16:41 105 6 gusting 18 15.6
2016-Feb-10 16:35 076 6 gusting 15 15.6
2016-Feb-10 16:30 098 6 gusting 15 15.0
2016-Feb-10 16:24 142 6 gusting 19 15.0
2016-Feb-10 16:20 090 6 gusting 19 15.0
2016-Feb-10 16:14 134 5 gusting 13 15.0
2016-Feb-10 16:10 137 3 gusting 12 15.0
2016-Feb-10 16:04 153 3 gusting 13 15.0
2016-Feb-10 16:00 149 3 gusting 13 15.0
2016-Feb-10 15:54 105 3 gusting 11 15.0
2016-Feb-10 15:50 110 3 gusting 11 15.0
2016-Feb-10 15:44 142 2 gusting 9 15.0
2016-Feb-10 15:40 126 2 gusting 9 15.0
2016-Feb-10 15:34 144 3 gusting 13 15.0
2016-Feb-10 15:30 096 4 gusting 13 15.0
2016-Feb-10 15:24 089 4 gusting 12 15.0
2016-Feb-10 15:20 136 4 gusting 12 15.0
2016-Feb-10 15:16 113 3 gusting 12 15.0
2016-Feb-10 15:10 115 3 gusting 9 15.0
2016-Feb-10 15:06 145 3 gusting 14 15.0
2016-Feb-10 15:00 114 4 gusting 14 15.0
2016-Feb-10 14:55 091 4 gusting 12 15.0
2016-Feb-10 14:49 096 4 gusting 16 15.0
2016-Feb-10 14:45 101 4 gusting 16 15.0
2016-Feb-10 14:40 114 2 gusting 13 15.0
2016-Feb-10 14:35 148 3 gusting 13 15.0
2016-Feb-10 14:29 119 4 gusting 11 15.0
2016-Feb-10 14:25 136 3 gusting 11 15.6
2016-Feb-10 14:19 139 1 gusting 8 15.6
2016-Feb-10 14:15 142 3 gusting 9 15.6
2016-Feb-10 14:09 123 3 gusting 9 15.6
2016-Feb-10 14:05 155 3 gusting 9 15.6
2016-Feb-10 13:59 135 3 gusting 9 15.6
2016-Feb-10 13:55 151 3 gusting 13 15.6
2016-Feb-10 13:49 138 3 gusting 13 15.6
2016-Feb-10 13:45 110 3 gusting 9 15.6
2016-Feb-10 13:39 117 3 gusting 8 15.6
2016-Feb-10 13:35 126 5 gusting 6 15.6
2016-Feb-10 13:26 110 5 gusting 10 15.0
2016-Feb-10 13:06 129 3 gusting 10 15.0
2016-Feb-10 13:02 115 3 gusting 12 15.6
2016-Feb-10 12:59 128 3 gusting 12 15.6
2016-Feb-10 12:55 141 2 gusting 12 15.6
2016-Feb-10 12:49 129 2 gusting 8 15.6
2016-Feb-10 12:45 109 2 gusting 8 15.6
2016-Feb-10 12:37 156 2 gusting 12 15.0
2016-Feb-10 12:32 141 4 gusting 13 15.6
2016-Feb-10 12:30 152 3 gusting 12 15.6
2016-Feb-10 12:26 123 3 gusting 13 15.6
2016-Feb-10 12:20 125 3 gusting 13 15.6
2016-Feb-10 12:16 140 4 gusting 13 15.6
2016-Feb-10 12:10 152 3 gusting 11 15.6
2016-Feb-10 12:05 144 2 gusting 10 15.6
2016-Feb-10 12:00 119 3 gusting 10 15.6
2016-Feb-10 11:56 135 3 gusting 10 15.6
2016-Feb-10 11:50 131 2 gusting 10 15.6
2016-Feb-10 11:46 133 4 gusting 13 15.6
2016-Feb-10 11:40 176 4 gusting 11 15.6
2016-Feb-10 11:36 153 4 gusting 11 15.6
2016-Feb-10 11:30 127 5 gusting 14 15.6
2016-Feb-10 11:26 139 5 gusting 14 15.0
2016-Feb-10 11:19 117 5 gusting 14 15.0
2016-Feb-10 11:16 160 6 gusting 13 15.0
2016-Feb-10 11:09 128 5 gusting 13 15.0
2016-Feb-10 11:05 099 3 gusting 10 15.0
2016-Feb-10 10:59 130 3 gusting 10 14.4
2016-Feb-10 10:55 153 2 gusting 8 14.4
2016-Feb-10 10:49 153 3 gusting 12 14.4
2016-Feb-10 10:45 149 4 gusting 12 14.4
2016-Feb-10 10:39 128 3 gusting 10 14.4
2016-Feb-10 10:35 121 2 gusting 8 13.9
2016-Feb-10 10:29 129 3 gusting 7 13.9
2016-Feb-10 10:25 128 3 gusting 10 13.3
2016-Feb-10 10:19 107 3 gusting 10 12.8
2016-Feb-10 10:15 132 2 gusting 8 12.8
2016-Feb-10 10:11 156 2 gusting 7 12.2
2016-Feb-10 10:05 126 0 gusting 3 12.2
2016-Feb-10 10:01 130 11.7
2016-Feb-10 09:55 129 11.7
2016-Feb-10 09:51 130 11.7
2016-Feb-10 09:45 129 11.7
2016-Feb-10 09:41 130 11.7
2016-Feb-10 09:36 129 11.1
2016-Feb-10 09:31 130 11.7
2016-Feb-10 09:24 130 11.1
2016-Feb-10 09:20 129 11.1
2016-Feb-10 09:14 129 11.1
2016-Feb-10 09:10 129 11.1
2016-Feb-10 09:05 128 11.1
2016-Feb-10 09:00 122 11.1
2016-Feb-10 08:54 119 10.6
2016-Feb-10 08:50 120 10.6
2016-Feb-10 08:44 119 10.6
2016-Feb-10 08:40 151 10.6
2016-Feb-10 08:36 150 10.6
2016-Feb-10 08:30 156 10.0
2016-Feb-10 08:26 157 10.0
2016-Feb-10 08:20 185 9.4
2016-Feb-10 08:16 194 9.4
2016-Feb-10 08:09 194 9.4
2016-Feb-10 08:05 194 9.4
2016-Feb-10 07:59 194 8.9
2016-Feb-10 07:55 194 8.9
2016-Feb-10 07:49 195 8.3
2016-Feb-10 07:45 196 8.3
2016-Feb-10 07:39 196 8.3
2016-Feb-10 07:35 196 8.3
2016-Feb-10 07:29 195 8.3
2016-Feb-10 07:25 196 8.3
2016-Feb-10 07:19 195 7.8
2016-Feb-10 07:15 195 7.8
2016-Feb-10 07:11 195 7.8
2016-Feb-10 07:05 196 7.8
2016-Feb-10 07:01 196 7.8
2016-Feb-10 06:55 196 7.8
2016-Feb-10 06:51 195 7.8
2016-Feb-10 06:45 196 7.8
2016-Feb-10 06:41 195 7.8
2016-Feb-10 06:35 196 7.8
2016-Feb-10 06:30 195 7.8
2016-Feb-10 06:24 196 7.8
2016-Feb-10 06:20 196 7.8
2016-Feb-10 06:14 195 7.8
2016-Feb-10 06:10 195 7.8
2016-Feb-10 06:04 196 7.8
2016-Feb-10 06:00 196 7.8
2016-Feb-10 05:54 195 7.8
2016-Feb-10 05:50 196 7.8
2016-Feb-10 05:44 196 7.8
2016-Feb-10 05:40 195 0 gusting 4 7.8
2016-Feb-10 05:34 195 0 gusting 4 8.3
2016-Feb-10 05:30 156 8.3
2016-Feb-10 05:26 132 8.3
2016-Feb-10 05:20 132 8.3
2016-Feb-10 05:15 132 8.3
2016-Feb-10 05:09 132 7.8
2016-Feb-10 05:05 132 8.3
2016-Feb-10 04:59 132 8.3
2016-Feb-10 04:55 132 8.3
2016-Feb-10 04:49 132 8.3
2016-Feb-10 04:45 132 8.3
2016-Feb-10 04:39 132 8.3
2016-Feb-10 04:35 132 8.3
2016-Feb-10 04:29 132 8.3
2016-Feb-10 04:25 132 8.3
2016-Feb-10 04:21 132 8.3
2016-Feb-10 04:15 132 8.9
2016-Feb-10 04:11 132 8.9
2016-Feb-10 04:05 086 8.9
2016-Feb-10 04:01 085 9.4
2016-Feb-10 03:54 085 9.4
2016-Feb-10 03:51 085 8.9
2016-Feb-10 03:44 085 9.4
2016-Feb-10 03:40 084 9.4
2016-Feb-10 03:34 085 1 gusting 9 9.4
2016-Feb-10 03:30 076 2 gusting 9 9.4
2016-Feb-10 03:26 072 2 gusting 9 9.4
2016-Feb-10 03:20 015 1 gusting 8 9.4
2016-Feb-10 03:14 074 1 gusting 9 9.4
2016-Feb-10 03:10 063 1 gusting 9 9.4
2016-Feb-10 03:06 071 0 gusting 5 9.4
2016-Feb-10 02:59 071 1 gusting 9 9.4
2016-Feb-10 02:55 080 3 gusting 9 9.4
2016-Feb-10 02:49 099 3 gusting 10 9.4
2016-Feb-10 02:45 076 4 gusting 10 9.4
2016-Feb-10 02:39 064 3 gusting 10 9.4
2016-Feb-10 02:35 069 2 gusting 9 9.4
2016-Feb-10 02:29 042 1 gusting 9 9.4
2016-Feb-10 02:25 055 1 gusting 6 10.0
2016-Feb-10 02:19 057 1 gusting 6 10.0
2016-Feb-10 02:15 063 0 gusting 6 10.0
2016-Feb-10 02:09 061 0 gusting 6 10.0
2016-Feb-10 02:05 025 0 gusting 6 10.0
2016-Feb-10 01:59 059 10.0
2016-Feb-10 01:55 059 10.0
2016-Feb-10 01:51 059 10.0
2016-Feb-10 01:45 059 10.0
2016-Feb-10 01:41 059 10.0
2016-Feb-10 01:35 047 0 gusting 5 10.0
2016-Feb-10 01:31 041 10.0
2016-Feb-10 01:25 057 10.0
2016-Feb-10 01:19 050 0 gusting 4 10.0
2016-Feb-10 01:15 039 0 gusting 5 10.0
2016-Feb-10 01:11 044 0 gusting 9 10.0
2016-Feb-10 01:04 046 1 gusting 9 10.0
2016-Feb-10 01:00 068 1 gusting 7 10.0
2016-Feb-10 00:54 067 0 gusting 5 10.0
2016-Feb-10 00:50 063 0 gusting 5 10.0
2016-Feb-10 00:44 061 0 gusting 4 10.0
2016-Feb-10 00:40 065 0 gusting 6 10.0
2016-Feb-10 00:34 050 10.0
2016-Feb-10 00:30 060 10.0
2016-Feb-10 00:24 061 10.0
2016-Feb-10 00:20 057 10.0
2016-Feb-10 00:14 046 0 gusting 5 10.0
2016-Feb-10 00:10 046 0 gusting 5 10.0
2016-Feb-10 00:05 057 2 gusting 8 10.0
2016-Feb-10 00:00 061 2 gusting 8 10.0
2016-Feb-09 23:54 067 1 gusting 8 10.0
2016-Feb-09 23:50 049 1 gusting 7 10.0
2016-Feb-09 23:46 064 2 gusting 9 10.0
2016-Feb-09 23:40 059 1 gusting 9 10.0
2016-Feb-09 23:36 065 0 gusting 7 10.0
2016-Feb-09 23:29 019 0 gusting 7 10.0
2016-Feb-09 23:26 057 1 gusting 7 10.0
2016-Feb-09 23:20 048 0 gusting 7 9.4
2016-Feb-09 23:15 070 0 gusting 7 9.4
2016-Feb-09 23:09 051 9.4
2016-Feb-09 23:05 049 0 gusting 6 9.4
2016-Feb-09 22:59 040 0 gusting 6 9.4
2016-Feb-09 22:55 044 0 gusting 5 9.4
2016-Feb-09 22:49 051 0 gusting 4 9.4
2016-Feb-09 22:45 056 9.4
2016-Feb-09 22:39 057 0 gusting 6 10.0
2016-Feb-09 22:35 051 1 gusting 6 10.0
2016-Feb-09 22:29 061 1 gusting 6 10.0
2016-Feb-09 22:25 055 0 gusting 6 10.0
2016-Feb-09 22:19 054 0 gusting 4 10.0
2016-Feb-09 22:15 079 0 gusting 4 10.0
2016-Feb-09 22:09 085 10.0
2016-Feb-09 22:05 101 10.0
2016-Feb-09 21:59 175 10.0
2016-Feb-09 21:55 184 10.0
2016-Feb-09 21:49 188 10.0
2016-Feb-09 21:46 188 10.0
2016-Feb-09 21:39 188 10.0
2016-Feb-09 21:35 188 10.6
2016-Feb-09 21:29 189 10.6
2016-Feb-09 21:25 189 10.6
2016-Feb-09 21:19 189 10.6
2016-Feb-09 21:15 188 10.6
2016-Feb-09 21:11 189 10.6
2016-Feb-09 21:05 188 10.6
2016-Feb-09 21:01 189 10.6